When you browse on this site, cookies collect data to enhance your experience and personalize the content and advertising you see.
Visit our Privacy Policy to learn more. By continuing to use the site, you agree to this use of cookies and data.

Stündliche Wetter Tykhonivka

Heute, 20 September, Sonntag

Zeit Temperatur Niederschläge Wind Luftdruck Luftfeuchtigkeit
00:00 +14°C° 0 mm 1 m/S 763 mmHg 47%
01:00 +13°C° 0 mm 2 m/S 763 mmHg 49%
02:00 +13°C° 0 mm 2 m/S 762 mmHg 51%
03:00 +13°C° 0 mm 2 m/S 762 mmHg 54%
04:00 +13°C° 0 mm 2 m/S 762 mmHg 56%
05:00 +12°C° 0 mm 2 m/S 762 mmHg 59%
06:00 +14°C° 0 mm 2 m/S 762 mmHg 53%
07:00 +16°C° 0 mm 3 m/S 762 mmHg 48%
08:00 +18°C° 0 mm 3 m/S 762 mmHg 42%
09:00 +20°C° 0 mm 3 m/S 762 mmHg 37%
10:00 +22°C° 0 mm 4 m/S 762 mmHg 32%
11:00 +23°C° 0 mm 4 m/S 763 mmHg 27%
12:00 +25°C° 0 mm 4 m/S 762 mmHg 26%
13:00 +25°C° 0 mm 5 m/S 762 mmHg 24%
14:00 +26°C° 0 mm 5 m/S 762 mmHg 23%
15:00 +25°C° 0 mm 4 m/S 762 mmHg 25%
16:00 +23°C° 0 mm 4 m/S 762 mmHg 27%
17:00 +22°C° 0 mm 3 m/S 762 mmHg 30%
18:00 +21°C° 0 mm 3 m/S 763 mmHg 33%
19:00 +19°C° 0 mm 3 m/S 763 mmHg 37%
20:00 +17°C° 0 mm 3 m/S 763 mmHg 41%
21:00 +16°C° 0 mm 3 m/S 764 mmHg 41%
22:00 +14°C° 0 mm 3 m/S 764 mmHg 42%
23:00 +14°C° 0 mm 4 m/S 764 mmHg 42%

Morgen, 21 September, Montag

Zeit Temperatur Niederschläge Wind Luftdruck Luftfeuchtigkeit
00:00 +13°C° 0 mm 3 m/S 764 mmHg 45%
01:00 +12°C° 0 mm 3 m/S 764 mmHg 48%
02:00 +12°C° 0 mm 3 m/S 765 mmHg 51%
03:00 +11°C° 0 mm 3 m/S 765 mmHg 53%
04:00 +11°C° 0 mm 3 m/S 765 mmHg 56%
05:00 +11°C° 0 mm 3 m/S 765 mmHg 58%
06:00 +13°C° 0 mm 3 m/S 765 mmHg 55%
07:00 +15°C° 0 mm 4 m/S 765 mmHg 51%
08:00 +18°C° 0 mm 4 m/S 765 mmHg 48%
09:00 +19°C° 0 mm 4 m/S 765 mmHg 41%
10:00 +21°C° 0 mm 3 m/S 765 mmHg 35%
11:00 +22°C° 0 mm 3 m/S 765 mmHg 29%
12:00 +24°C° 0 mm 3 m/S 765 mmHg 27%
13:00 +24°C° 0 mm 3 m/S 764 mmHg 25%
14:00 +25°C° 0 mm 3 m/S 764 mmHg 24%
15:00 +24°C° 0 mm 3 m/S 764 mmHg 28%
16:00 +22°C° 0 mm 3 m/S 764 mmHg 31%
17:00 +21°C° 0 mm 3 m/S 764 mmHg 35%
18:00 +19°C° 0 mm 2 m/S 764 mmHg 42%
19:00 +18°C° 0 mm 1 m/S 764 mmHg 48%
20:00 +15°C° 0 mm 1 m/S 764 mmHg 55%
21:00 +15°C° 0 mm 1 m/S 764 mmHg 54%
22:00 +14°C° 0 mm 2 m/S 764 mmHg 54%
23:00 +14°C° 0 mm 2 m/S 765 mmHg 53%

übermorgen, 22 September, Dienstag

Zeit Temperatur Niederschläge Wind Luftdruck Luftfeuchtigkeit
00:00 +14°C° 0 mm 2 m/S 764 mmHg 49%
01:00 +14°C° 0 mm 2 m/S 764 mmHg 45%
02:00 +13°C° 0 mm 2 m/S 764 mmHg 40%
03:00 +12°C° 0 mm 3 m/S 764 mmHg 39%
04:00 +12°C° 0 mm 3 m/S 764 mmHg 37%
05:00 +11°C° 0 mm 3 m/S 764 mmHg 35%
06:00 +13°C° 0 mm 3 m/S 765 mmHg 32%
07:00 +17°C° 0 mm 3 m/S 765 mmHg 28%
08:00 +19°C° 0 mm 3 m/S 765 mmHg 24%
09:00 +21°C° 0 mm 3 m/S 765 mmHg 22%
10:00 +23°C° 0 mm 4 m/S 765 mmHg 19%
11:00 +26°C° 0 mm 4 m/S 765 mmHg 16%
12:00 +26°C° 0 mm 4 m/S 764 mmHg 16%
13:00 +27°C° 0 mm 4 m/S 764 mmHg 15%
14:00 +27°C° 0 mm 3 m/S 764 mmHg 15%
15:00 +26°C° 0 mm 3 m/S 763 mmHg 17%
16:00 +25°C° 0 mm 3 m/S 763 mmHg 19%
17:00 +24°C° 0 mm 3 m/S 763 mmHg 22%
18:00 +21°C° 0 mm 2 m/S 763 mmHg 24%
19:00 +19°C° 0 mm 2 m/S 763 mmHg 27%
20:00 +17°C° 0 mm 2 m/S 763 mmHg 29%
21:00 +17°C° 0 mm 2 m/S 763 mmHg 29%
22:00 +16°C° 0 mm 2 m/S 763 mmHg 28%
23:00 +16°C° 0 mm 3 m/S 763 mmHg 28%

23 September, Mittwoch

Zeit Temperatur Niederschläge Wind Luftdruck Luftfeuchtigkeit
00:00 +16°C° 0 mm 3 m/S 763 mmHg 28%
01:00 +14°C° 0 mm 3 m/S 763 mmHg 28%
02:00 +14°C° 0 mm 3 m/S 762 mmHg 28%
03:00 +14°C° 0 mm 3 m/S 762 mmHg 29%
04:00 +13°C° 0 mm 3 m/S 762 mmHg 29%
05:00 +13°C° 0 mm 3 m/S 762 mmHg 30%
06:00 +15°C° 0 mm 4 m/S 762 mmHg 29%
07:00 +18°C° 0 mm 4 m/S 762 mmHg 29%
08:00 +21°C° 0 mm 5 m/S 762 mmHg 28%
09:00 +23°C° 0 mm 5 m/S 762 mmHg 27%
10:00 +26°C° 0 mm 5 m/S 762 mmHg 26%
11:00 +28°C° 0 mm 5 m/S 761 mmHg 24%
12:00 +28°C° 0 mm 5 m/S 761 mmHg 24%
13:00 +28°C° 0 mm 5 m/S 760 mmHg 24%
14:00 +28°C° 0 mm 5 m/S 760 mmHg 24%
15:00 +27°C° 0 mm 4 m/S 760 mmHg 26%
16:00 +26°C° 0 mm 4 m/S 760 mmHg 28%
17:00 +25°C° 0 mm 3 m/S 759 mmHg 30%
18:00 +22°C° 0 mm 3 m/S 759 mmHg 33%
19:00 +20°C° 0 mm 3 m/S 759 mmHg 36%
20:00 +19°C° 0 mm 2 m/S 760 mmHg 39%
21:00 +19°C° 0 mm 3 m/S 759 mmHg 37%
22:00 +18°C° 0 mm 3 m/S 759 mmHg 35%
23:00 +18°C° 0 mm 4 m/S 759 mmHg 33%

24 September, Donnerstag

Zeit Temperatur Niederschläge Wind Luftdruck Luftfeuchtigkeit
00:00 +18°C° 0 mm 4 m/S 759 mmHg 36%
01:00 +18°C° 0 mm 4 m/S 759 mmHg 39%
02:00 +18°C° 0 mm 4 m/S 759 mmHg 42%
03:00 +17°C° 0 mm 4 m/S 759 mmHg 46%
04:00 +17°C° 0 mm 4 m/S 759 mmHg 51%
05:00 +17°C° 0 mm 4 m/S 759 mmHg 55%
06:00 +18°C° 0 mm 4 m/S 759 mmHg 52%
07:00 +20°C° 0 mm 5 m/S 759 mmHg 50%
08:00 +22°C° 0 mm 5 m/S 759 mmHg 47%
09:00 +25°C° 0 mm 5 m/S 759 mmHg 42%
10:00 +26°C° 0 mm 5 m/S 759 mmHg 37%
11:00 +28°C° 0 mm 5 m/S 759 mmHg 32%
12:00 +28°C° 0 mm 5 m/S 758 mmHg 33%
13:00 +28°C° 0 mm 5 m/S 758 mmHg 35%
14:00 +29°C° 0 mm 5 m/S 758 mmHg 37%
15:00 +28°C° 0 mm 4 m/S 758 mmHg 39%
16:00 +26°C° 0 mm 3 m/S 758 mmHg 42%
17:00 +25°C° 0 mm 2 m/S 757 mmHg 45%
18:00 +24°C° 0 mm 2 m/S 757 mmHg 47%
19:00 +23°C° 0 mm 2 m/S 757 mmHg 49%
20:00 +21°C° 0 mm 2 m/S 757 mmHg 52%
21:00 +20°C° 0 mm 2 m/S 757 mmHg 51%
22:00 +20°C° 0 mm 2 m/S 757 mmHg 50%
23:00 +20°C° 0 mm 3 m/S 757 mmHg 49%

25 September, Freitag

Zeit Temperatur Niederschläge Wind Luftdruck Luftfeuchtigkeit
00:00 +19°C° 0 mm 3 m/S 757 mmHg 51%
01:00 +19°C° 0 mm 3 m/S 757 mmHg 53%
02:00 +18°C° 0 mm 3 m/S 757 mmHg 56%
03:00 +18°C° 0 mm 3 m/S 757 mmHg 58%
04:00 +18°C° 0 mm 3 m/S 757 mmHg 60%
05:00 +18°C° 0 mm 3 m/S 757 mmHg 62%
06:00 +19°C° 0 mm 4 m/S 757 mmHg 60%
07:00 +21°C° 0 mm 4 m/S 757 mmHg 57%
08:00 +22°C° 0 mm 5 m/S 757 mmHg 54%
09:00 +23°C° 0 mm 5 m/S 757 mmHg 51%
10:00 +26°C° 0 mm 5 m/S 756 mmHg 48%
11:00 +27°C° 0 mm 6 m/S 756 mmHg 44%
12:00 +27°C° 0 mm 6 m/S 756 mmHg 44%
13:00 +28°C° 0 mm 5 m/S 756 mmHg 43%
14:00 +28°C° 0 mm 5 m/S 756 mmHg 43%
15:00 +27°C° 0 mm 4 m/S 755 mmHg 46%
16:00 +26°C° 0 mm 4 m/S 755 mmHg 48%
17:00 +25°C° 0 mm 3 m/S 755 mmHg 51%
18:00 +22°C° 0 mm 3 m/S 755 mmHg 54%
19:00 +21°C° 0 mm 2 m/S 755 mmHg 57%
20:00 +20°C° 0 mm 2 m/S 754 mmHg 60%
21:00 +20°C° 0 mm 2 m/S 754 mmHg 59%
22:00 +19°C° 0 mm 2 m/S 754 mmHg 57%
23:00 +19°C° 0 mm 2 m/S 754 mmHg 56%
Mehr zeigen